DMC3-FM1

Last updated on Mon Nov 03 2025 00:02:44 GMT+0000 (Coordinated Universal Time)

1 40715U 15032A 25306.55351841 .00000985 00000+0 12048-3 0 9995 2 40715 97.6737 175.2032 0007099 81.4290 278.7729 14.85332048556261
UTC large
Height (km)
Speed (km/s)
/
Latitude / Longitude
Inclination (degrees)
Orbital Period (minutes)
Azimuth
Elevation
Range (km)
Doppler Factor

Next 0 passes for location: London (51.5072 / 0.1276)

Sorry there are no passes over London.